CW5551 Weather Reports


Display with metric or nautical units.
time (UTC)temp
F
wind
direction
speed
MPH
gust
MPH
rain 1hr
in
rain 24hr
in
rain mn
in
humidity
%
barometer
mb
20260506185126 74 327 2.0 5.0 0.00 0.00 0.00 36 1015.8
20260506183632 72 211 2.0 5.0 0.00 0.00 0.00 44 1015.2
20260506182123 71 195 2.0 8.0 0.00 0.00 0.00 41 1015.4
20260506173619 69 248 1.0 4.0 0.00 0.00 0.00 43 1015.3
20260506162113 61 250 0.0 3.0 0.00 0.00 0.00 58 1014.9
20260506153612 56 146 0.0 1.0 0.00 0.00 0.00 68 1015.6
20260506145130 53 113 0.0 2.0 0.00 0.00 0.00 74 1015.1
20260506143621 50 272 0.0 2.0 0.00 0.00 0.00 80 1015.3
20260506142128 48 239 0.0 2.0 0.00 0.00 0.00 83 1014.7
20260506135116 43 121 0.0 0.0 0.00 0.00 0.00 89 1014.2
20260506133622 42 121 0.0 0.0 0.00 0.00 0.00 88 1013.8
20260506125119 42 121 0.0 1.0 0.00 0.00 0.00 88 1014.1
20260506120626 43 308 0.0 1.0 0.00 0.00 0.00 88 1013.6
20260506113612 44 297 0.0 1.0 0.00 0.00 0.00 87 1013.2
20260506110631 45 320 1.0 5.0 0.00 0.00 0.00 87 1013.8
20260506103615 45 140 0.0 5.0 0.00 0.00 0.00 85 1013.6
20260506102125 45 244 1.0 6.0 0.00 0.00 0.00 85 1013.7
20260506092127 46 194 0.0 5.0 0.00 0.00 0.00 84 1013.9
20260506090614 46 158 4.0 7.0 0.00 0.00 0.00 85 1013.7
20260506083620 46 261 0.0 5.0 0.00 0.00 0.00 84 1013.8
20260506072114 46 256 1.0 5.0 0.00 0.00 0.00 84 1013.9
20260506062116 46 110 0.0 4.0 0.00 0.00 0.00 84 1013.4
20260506060625 47 207 1.0 6.0 0.00 0.00 0.00 82 1012.8
20260506042121 48 213 0.0 6.0 0.00 0.00 0.00 79 1012.6
20260506033630 50 264 1.0 7.0 0.00 0.00 0.00 72 1012.4
20260506032118 50 232 1.0 7.0 0.00 0.00 0.00 73 1011.8
20260506030628 51 292 2.0 12.0 0.00 0.00 0.00 72 1012.0
20260506025124 51 24 3.0 7.0 0.00 0.00 0.00 69 1011.5
20260506023628 52 309 4.0 12.0 0.00 0.00 0.00 67 1011.5
20260506022116 53 342 2.0 10.0 0.00 0.00 0.00 65 1011.8
20260506015119 55 288 2.0 12.0 0.00 0.00 0.00 65 1011.3
20260506012113 56 40 2.0 11.0 0.00 0.00 0.00 62 1011.1
20260506010623 57 342 3.0 13.0 0.00 0.00 0.00 62 1011.1
20260506005119 57 257 5.0 14.0 0.00 0.00 0.00 63 1011.1
20260506003624 56 250 4.0 12.0 0.00 0.00 0.00 62 1010.8
20260506000621 57 275 3.0 9.0 0.00 0.00 0.00 61 1010.5
20260505233629 58 319 1.0 14.0 0.00 0.00 0.00 59 1010.9
20260505230626 59 334 3.0 13.0 0.00 0.00 0.00 57 1011.0
20260505225127 60 295 4.0 12.0 0.00 0.00 0.00 56 1011.0
20260505223612 60 343 2.0 9.0 0.00 0.00 0.00 53 1011.0
20260505222122 59 289 3.0 9.0 0.00 0.00 0.00 58 1010.4
20260505220626 58 248 4.0 13.0 0.00 0.00 0.00 61 1010.5
20260505213614 57 242 4.0 13.0 0.00 0.00 0.00 61 1010.8
20260505210629 59 184 2.0 7.0 0.00 0.00 0.00 61 1010.4
20260505205131 60 248 1.0 9.0 0.00 0.00 0.00 60 1010.5
20260505203616 59 247 2.0 6.0 0.00 0.00 0.00 60 1010.6
20260505200614 58 273 1.0 6.0 0.00 0.00 0.00 57 1010.7
20260505195112 58 259 1.0 7.0 0.00 0.00 0.00 58 1010.8
20260505192129 58 153 2.0 7.0 0.00 0.00 0.00 58 1010.8